| time (UTC) | temp F | wind direction | speed MPH | gust MPH | rain 1hr in | rain 24hr in | rain mn in | humidity % | barometer mb |
| 20260903224105 | 77 | 0 | 1.0 | 2.0 | 0.00 | 0.00 | 0.00 | 40 | 1020.7 |
| 20260903223605 | 77 | 0 | 0.0 | 3.0 | 0.00 | 0.00 | 0.00 | 40 | 1020.7 |
| 20260903223105 | 77 | 0 | 2.0 | 3.0 | 0.00 | 0.00 | 0.00 | 40 | 1020.6 |
| 20260903222605 | 77 | 0 | 0.0 | 2.0 | 0.00 | 0.00 | 0.00 | 40 | 1020.7 |
| 20260903222104 | 77 | 0 | 1.0 | 3.0 | 0.00 | 0.00 | 0.00 | 40 | 1020.7 |
| 20260903221555 | 78 | 0 | 2.0 | 3.0 | 0.00 | 0.00 | 0.00 | 40 | 1020.7 |
| 20260903221048 | 78 | 0 | 2.0 | 3.0 | 0.00 | 0.00 | 0.00 | 40 | 1020.5 |
| 20260903220549 | 78 | 0 | 2.0 | 3.0 | 0.00 | 0.00 | 0.00 | 40 | 1020.5 |
| 20260903220045 | 78 | 0 | 1.0 | 2.0 | 0.00 | 0.00 | 0.00 | 40 | 1020.4 |
| 20260903215805 | 78 | 0 | 1.0 | 2.0 | 0.00 | 0.00 | 0.00 | 40 | 1020.5 |
| 20260903215043 | 78 | 0 | 0.0 | 2.0 | 0.00 | 0.00 | 0.00 | 40 | 1020.3 |
| 20260903214544 | 78 | 0 | 1.0 | 3.0 | 0.00 | 0.00 | 0.00 | 40 | 1020.4 |
| 20260903214043 | 78 | 0 | 2.0 | 3.0 | 0.00 | 0.00 | 0.00 | 39 | 1020.3 |
| 20260903213544 | 79 | 0 | 2.0 | 4.0 | 0.00 | 0.00 | 0.00 | 39 | 1020.4 |
| 20260903213043 | 79 | 0 | 2.0 | 4.0 | 0.00 | 0.00 | 0.00 | 38 | 1020.4 |
| 20260903212543 | 79 | 0 | 0.0 | 4.0 | 0.00 | 0.00 | 0.00 | 38 | 1020.4 |
| 20260903212043 | 80 | 0 | 2.0 | 5.0 | 0.00 | 0.00 | 0.00 | 38 | 1020.4 |
| 20260903211542 | 80 | 0 | 4.0 | 5.0 | 0.00 | 0.00 | 0.00 | 38 | 1020.5 |
| 20260903211043 | 80 | 0 | 3.0 | 5.0 | 0.00 | 0.00 | 0.00 | 37 | 1020.5 |
| 20260903210542 | 80 | 0 | 2.0 | 6.0 | 0.00 | 0.00 | 0.00 | 37 | 1020.4 |
| 20260903210043 | 80 | 0 | 3.0 | 6.0 | 0.00 | 0.00 | 0.00 | 37 | 1020.5 |
| 20260903205542 | 80 | 0 | 4.0 | 6.0 | 0.00 | 0.00 | 0.00 | 37 | 1020.5 |
| 20260903205034 | 80 | 0 | 4.0 | 6.0 | 0.00 | 0.00 | 0.00 | 37 | 1020.5 |
| 20260903204533 | 80 | 0 | 4.0 | 6.0 | 0.00 | 0.00 | 0.00 | 37 | 1020.5 |
| 20260903204023 | 80 | 0 | 3.0 | 5.0 | 0.00 | 0.00 | 0.00 | 37 | 1020.4 |
| 20260903203518 | 81 | 0 | 2.0 | 4.0 | 0.00 | 0.00 | 0.00 | 36 | 1020.4 |
| 20260903203014 | 81 | 0 | 3.0 | 4.0 | 0.00 | 0.00 | 0.00 | 36 | 1020.4 |
| 20260903202513 | 81 | 0 | 2.0 | 5.0 | 0.00 | 0.00 | 0.00 | 36 | 1020.3 |
| 20260903202233 | 81 | 0 | 4.0 | 4.0 | 0.00 | 0.00 | 0.00 | 36 | 1020.4 |
| 20260903201505 | 81 | 0 | 2.0 | 4.0 | 0.00 | 0.00 | 0.00 | 36 | 1020.4 |
| 20260903201005 | 82 | 0 | 3.0 | 4.0 | 0.00 | 0.00 | 0.00 | 35 | 1020.4 |
| 20260903200948 | 82 | 0 | 3.0 | 4.0 | 0.00 | 0.00 | 0.00 | 35 | 1020.3 |
| 20260903200004 | 82 | 0 | 2.0 | 4.0 | 0.00 | 0.00 | 0.00 | 35 | 1020.3 |
| 20260903195504 | 82 | 0 | 2.0 | 4.0 | 0.00 | 0.00 | 0.00 | 35 | 1020.3 |
| 20260903195005 | 82 | 0 | 2.0 | 3.0 | 0.00 | 0.00 | 0.00 | 35 | 1020.3 |
| 20260903194504 | 82 | 0 | 2.0 | 3.0 | 0.00 | 0.00 | 0.00 | 35 | 1020.2 |
| 20260903194004 | 83 | 0 | 1.0 | 4.0 | 0.00 | 0.00 | 0.00 | 34 | 1020.2 |
| 20260903193505 | 83 | 0 | 1.0 | 4.0 | 0.00 | 0.00 | 0.00 | 34 | 1020.2 |
| 20260903193223 | 83 | 0 | 2.0 | 4.0 | 0.00 | 0.00 | 0.00 | 34 | 1020.2 |
| 20260903192504 | 83 | 0 | 1.0 | 4.0 | 0.00 | 0.00 | 0.00 | 34 | 1020.2 |
| 20260903192006 | 83 | 0 | 2.0 | 4.0 | 0.00 | 0.00 | 0.00 | 34 | 1020.2 |
| 20260903191505 | 83 | 0 | 3.0 | 4.0 | 0.00 | 0.00 | 0.00 | 33 | 1020.2 |
| 20260903191005 | 83 | 0 | 2.0 | 6.0 | 0.00 | 0.00 | 0.00 | 33 | 1020.1 |
| 20260903190505 | 83 | 0 | 3.0 | 6.0 | 0.00 | 0.00 | 0.00 | 33 | 1020.0 |
| 20260903190451 | 83 | 0 | 3.0 | 4.0 | 0.00 | 0.00 | 0.00 | 32 | 1020.0 |
| 20260903185504 | 83 | 0 | 2.0 | 4.0 | 0.00 | 0.00 | 0.00 | 31 | 1019.9 |
| 20260903185006 | 84 | 0 | 3.0 | 4.0 | 0.00 | 0.00 | 0.00 | 31 | 1019.8 |
| 20260903184724 | 84 | 0 | 2.0 | 3.0 | 0.00 | 0.00 | 0.00 | 31 | 1019.7 |
| 20260903184005 | 85 | 0 | 2.0 | 3.0 | 0.00 | 0.00 | 0.00 | 29 | 1019.7 |
| 20260903183505 | 87 | 0 | 0.0 | 0.0 | 0.00 | 0.00 | 0.00 | 29 | 1019.6 |
| 20260903183005 | 87 | 0 | 0.0 | 0.0 | 0.00 | 0.00 | 0.00 | 28 | 1019.5 |
| 20260903182506 | 87 | 0 | 0.0 | 0.0 | 0.00 | 0.00 | 0.00 | 25 | 1019.5 |
| 20260903182004 | 87 | 192 | 0.0 | 0.0 | 0.00 | 0.00 | 0.00 | 25 | 1019.5 |
| 20260903181729 | 87 | 0 | 0.0 | 0.0 | 0.00 | 0.00 | 0.00 | 24 | 1019.5 |
| 20260903181005 | 88 | 192 | 0.0 | 0.0 | 0.00 | 0.00 | 0.00 | 25 | 1019.4 |
| 20260903180724 | 88 | 0 | 0.0 | 0.0 | 0.00 | 0.00 | 0.00 | 25 | 1019.4 |
| 20260903180007 | 89 | 0 | 0.0 | 0.0 | 0.00 | 0.00 | 0.00 | 24 | 1019.2 |
| 20260903175507 | 89 | 193 | 0.0 | 0.0 | 0.00 | 0.00 | 0.00 | 25 | 1019.4 |
| 20260903175006 | 89 | 193 | 0.0 | 0.0 | 0.00 | 0.00 | 0.00 | 24 | 1019.4 |
| 20260903174505 | 89 | 193 | 0.0 | 0.0 | 0.00 | 0.00 | 0.00 | 23 | 1019.2 |
| 20260903174007 | 89 | 193 | 0.0 | 0.0 | 0.00 | 0.00 | 0.00 | 23 | 1019.2 |
| 20260903173505 | 89 | 193 | 0.0 | 0.0 | 0.00 | 0.00 | 0.00 | 24 | 1019.2 |
| 20260903173007 | 90 | 193 | 0.0 | 2.0 | 0.00 | 0.00 | 0.00 | 25 | 1019.2 |
| 20260903172516 | 90 | 193 | 0.0 | 2.0 | 0.00 | 0.00 | 0.00 | 25 | 1019.2 |
| 20260903172006 | 90 | 193 | 2.0 | 2.0 | 0.00 | 0.00 | 0.00 | 24 | 1019.1 |
| 20260903171506 | 90 | 193 | 1.0 | 2.0 | 0.00 | 0.00 | 0.00 | 24 | 1019.2 |
| 20260903171008 | 90 | 193 | 1.0 | 2.0 | 0.00 | 0.00 | 0.00 | 24 | 1019.1 |
| 20260903170506 | 90 | 192 | 1.0 | 3.0 | 0.00 | 0.00 | 0.00 | 24 | 1019.0 |
| 20260903170006 | 90 | 193 | 2.0 | 4.0 | 0.00 | 0.00 | 0.00 | 23 | 1018.9 |
| 20260903165731 | 90 | 193 | 2.0 | 4.0 | 0.00 | 0.00 | 0.00 | 22 | 1019.0 |
| 20260903165007 | 91 | 228 | 2.0 | 4.0 | 0.00 | 0.00 | 0.00 | 23 | 1019.0 |
| 20260903164506 | 90 | 219 | 1.0 | 5.0 | 0.00 | 0.00 | 0.00 | 22 | 1018.8 |
| 20260903164007 | 90 | 214 | 3.0 | 5.0 | 0.00 | 0.00 | 0.00 | 21 | 1018.8 |
| 20260903163506 | 91 | 216 | 2.0 | 4.0 | 0.00 | 0.00 | 0.00 | 22 | 1018.9 |
| 20260903163006 | 91 | 227 | 1.0 | 5.0 | 0.00 | 0.00 | 0.00 | 22 | 1018.8 |
| 20260903162723 | 90 | 240 | 3.0 | 5.0 | 0.00 | 0.00 | 0.00 | 21 | 1018.9 |
| 20260903162006 | 91 | 203 | 3.0 | 5.0 | 0.00 | 0.00 | 0.00 | 22 | 1018.8 |
| 20260903161727 | 91 | 190 | 1.0 | 5.0 | 0.00 | 0.00 | 0.00 | 21 | 1018.9 |
| 20260903161007 | 91 | 185 | 3.0 | 5.0 | 0.00 | 0.00 | 0.00 | 23 | 1018.9 |
| 20260903160506 | 91 | 180 | 4.0 | 6.0 | 0.00 | 0.00 | 0.00 | 22 | 1018.9 |
| 20260903160239 | 91 | 204 | 4.0 | 6.0 | 0.00 | 0.00 | 0.00 | 21 | 1018.9 |
| 20260903155507 | 90 | 186 | 2.0 | 6.0 | 0.00 | 0.00 | 0.00 | 21 | 1019.0 |
| 20260903155007 | 90 | 190 | 4.0 | 6.0 | 0.00 | 0.00 | 0.00 | 21 | 1019.0 |
| 20260903154506 | 90 | 192 | 4.0 | 6.0 | 0.00 | 0.00 | 0.00 | 23 | 1019.1 |
| 20260903154007 | 91 | 186 | 4.0 | 6.0 | 0.00 | 0.00 | 0.00 | 21 | 1019.1 |
| 20260903153729 | 91 | 248 | 1.0 | 5.0 | 0.00 | 0.00 | 0.00 | 22 | 1019.1 |
| 20260903153006 | 91 | 248 | 3.0 | 5.0 | 0.00 | 0.00 | 0.00 | 21 | 1019.1 |
| 20260903152506 | 92 | 247 | 4.0 | 5.0 | 0.00 | 0.00 | 0.00 | 20 | 1019.1 |
| 20260903152225 | 92 | 164 | 2.0 | 5.0 | 0.00 | 0.00 | 0.00 | 20 | 1019.2 |
| 20260903151506 | 91 | 155 | 1.0 | 7.0 | 0.00 | 0.00 | 0.00 | 21 | 1019.2 |
| 20260903151005 | 91 | 212 | 4.0 | 7.0 | 0.00 | 0.00 | 0.00 | 20 | 1019.2 |
| 20260903150458 | 91 | 180 | 2.0 | 4.0 | 0.00 | 0.00 | 0.00 | 21 | 1019.4 |
| 20260903145950 | 92 | 241 | 3.0 | 5.0 | 0.00 | 0.00 | 0.00 | 20 | 1019.4 |
| 20260903145443 | 92 | 188 | 4.0 | 6.0 | 0.00 | 0.00 | 0.00 | 19 | 1019.5 |
| 20260903144938 | 91 | 234 | 2.0 | 6.0 | 0.00 | 0.00 | 0.00 | 19 | 1019.5 |
| 20260903144438 | 91 | 244 | 4.0 | 6.0 | 0.00 | 0.00 | 0.00 | 20 | 1019.5 |
| 20260903144154 | 92 | 162 | 2.0 | 4.0 | 0.00 | 0.00 | 0.00 | 22 | 1019.4 |
| 20260903143437 | 91 | 158 | 2.0 | 5.0 | 0.00 | 0.00 | 0.00 | 22 | 1019.5 |
| 20260903142935 | 90 | 161 | 3.0 | 5.0 | 0.00 | 0.00 | 0.00 | 22 | 1019.6 |
| 20260903142435 | 90 | 202 | 4.0 | 5.0 | 0.00 | 0.00 | 0.00 | 22 | 1019.6 |
| 20260903141932 | 91 | 203 | 4.0 | 5.0 | 0.00 | 0.00 | 0.00 | 22 | 1019.7 |
| 20260903141434 | 92 | 224 | 2.0 | 5.0 | 0.00 | 0.00 | 0.00 | 22 | 1019.8 |
| 20260903140933 | 92 | 262 | 1.0 | 4.0 | 0.00 | 0.00 | 0.00 | 21 | 1019.9 |
| 20260903140656 | 92 | 80 | 3.0 | 5.0 | 0.00 | 0.00 | 0.00 | 21 | 1019.8 |
| 20260903135933 | 92 | 79 | 3.0 | 7.0 | 0.00 | 0.00 | 0.00 | 21 | 1019.8 |
| 20260903135434 | 92 | 87 | 5.0 | 7.0 | 0.00 | 0.00 | 0.00 | 21 | 1019.8 |
| 20260903135416 | 92 | 128 | 2.0 | 5.0 | 0.00 | 0.00 | 0.00 | 22 | 1019.9 |
| 20260903134434 | 92 | 193 | 2.0 | 5.0 | 0.00 | 0.00 | 0.00 | 25 | 1019.9 |
| 20260903134136 | 92 | 199 | 2.0 | 4.0 | 0.00 | 0.00 | 0.00 | 23 | 1019.8 |
| 20260903134124 | 92 | 248 | 3.0 | 5.0 | 0.00 | 0.00 | 0.00 | 25 | 1019.8 |
| 20260903132933 | 92 | 0 | 2.0 | 7.0 | 0.00 | 0.00 | 0.00 | 22 | 1019.9 |
| 20260903132433 | 92 | 303 | 2.0 | 7.0 | 0.00 | 0.00 | 0.00 | 23 | 1020.0 |
| 20260903131932 | 92 | 65 | 2.0 | 6.0 | 0.00 | 0.00 | 0.00 | 23 | 1020.0 |
| 20260903131434 | 92 | 107 | 2.0 | 5.0 | 0.00 | 0.00 | 0.00 | 23 | 1020.1 |
| 20260903131150 | 92 | 106 | 3.0 | 5.0 | 0.00 | 0.00 | 0.00 | 24 | 1020.1 |
| 20260903130433 | 92 | 85 | 4.0 | 5.0 | 0.00 | 0.00 | 0.00 | 25 | 1020.1 |
| 20260903125931 | 91 | 99 | 2.0 | 7.0 | 0.00 | 0.00 | 0.00 | 23 | 1020.2 |
| 20260903125433 | 91 | 337 | 1.0 | 7.0 | 0.00 | 0.00 | 0.00 | 23 | 1020.1 |
| 20260903124932 | 91 | 23 | 2.0 | 6.0 | 0.00 | 0.00 | 0.00 | 25 | 1020.1 |
| 20260903124433 | 91 | 288 | 4.0 | 6.0 | 0.00 | 0.00 | 0.00 | 26 | 1020.1 |
| 20260903123931 | 90 | 7 | 3.0 | 4.0 | 0.00 | 0.00 | 0.00 | 27 | 1020.1 |
| 20260903123433 | 89 | 155 | 2.0 | 5.0 | 0.00 | 0.00 | 0.00 | 26 | 1020.2 |
| 20260903122932 | 89 | 180 | 4.0 | 5.0 | 0.00 | 0.00 | 0.00 | 27 | 1020.3 |
| 20260903122432 | 89 | 314 | 3.0 | 4.0 | 0.00 | 0.00 | 0.00 | 28 | 1020.2 |
| 20260903122152 | 90 | 107 | 2.0 | 7.0 | 0.00 | 0.00 | 0.00 | 28 | 1020.3 |
| 20260903121432 | 90 | 110 | 4.0 | 7.0 | 0.00 | 0.00 | 0.00 | 28 | 1020.4 |
| 20260903120929 | 90 | 79 | 4.0 | 5.0 | 0.00 | 0.00 | 0.00 | 29 | 1020.4 |
| 20260903120429 | 90 | 87 | 4.0 | 4.0 | 0.00 | 0.00 | 0.00 | 28 | 1020.4 |
| 20260903115929 | 90 | 290 | 0.0 | 5.0 | 0.00 | 0.00 | 0.00 | 28 | 1020.5 |
| 20260903115429 | 88 | 290 | 3.0 | 5.0 | 0.00 | 0.00 | 0.00 | 29 | 1020.5 |
| 20260903114927 | 89 | 192 | 1.0 | 5.0 | 0.00 | 0.00 | 0.00 | 28 | 1020.5 |
| 20260903114427 | 88 | 200 | 4.0 | 6.0 | 0.00 | 0.00 | 0.00 | 30 | 1020.6 |
| 20260903113927 | 88 | 200 | 3.0 | 6.0 | 0.00 | 0.00 | 0.00 | 29 | 1020.6 |
| 20260903113648 | 89 | 200 | 4.0 | 5.0 | 0.00 | 0.00 | 0.00 | 29 | 1020.6 |
| 20260903112928 | 89 | 109 | 2.0 | 5.0 | 0.00 | 0.00 | 0.00 | 30 | 1020.8 |
| 20260903112427 | 89 | 83 | 4.0 | 6.0 | 0.00 | 0.00 | 0.00 | 31 | 1020.8 |
| 20260903111926 | 87 | 103 | 1.0 | 6.0 | 0.00 | 0.00 | 0.00 | 32 | 1020.8 |
| 20260903111427 | 87 | 298 | 4.0 | 6.0 | 0.00 | 0.00 | 0.00 | 32 | 1020.9 |
| 20260903110926 | 87 | 192 | 4.0 | 6.0 | 0.00 | 0.00 | 0.00 | 32 | 1020.9 |
| 20260903110427 | 86 | 241 | 4.0 | 5.0 | 0.00 | 0.00 | 0.00 | 32 | 1021.0 |
| 20260903105928 | 86 | 202 | 2.0 | 7.0 | 0.00 | 0.00 | 0.00 | 32 | 1021.1 |
| 20260903105426 | 86 | 127 | 2.0 | 7.0 | 0.00 | 0.00 | 0.00 | 32 | 1021.1 |
| 20260903105145 | 86 | 172 | 3.0 | 5.0 | 0.00 | 0.00 | 0.00 | 32 | 1021.2 |
| 20260903104426 | 87 | 175 | 2.0 | 6.0 | 0.00 | 0.00 | 0.00 | 32 | 1021.2 |
| 20260903103927 | 86 | 138 | 3.0 | 6.0 | 0.00 | 0.00 | 0.00 | 32 | 1021.4 |
| 20260903103647 | 86 | 252 | 2.0 | 4.0 | 0.00 | 0.00 | 0.00 | 33 | 1021.4 |
| 20260903102927 | 86 | 245 | 3.0 | 5.0 | 0.00 | 0.00 | 0.00 | 32 | 1021.5 |
| 20260903102426 | 86 | 144 | 2.0 | 5.0 | 0.00 | 0.00 | 0.00 | 33 | 1021.6 |
| 20260903101927 | 85 | 131 | 2.0 | 5.0 | 0.00 | 0.00 | 0.00 | 31 | 1021.5 |
| 20260903101654 | 85 | 134 | 2.0 | 5.0 | 0.00 | 0.00 | 0.00 | 33 | 1021.5 |
| 20260903101146 | 85 | 290 | 2.0 | 6.0 | 0.00 | 0.00 | 0.00 | 32 | 1021.5 |
| 20260903100426 | 87 | 213 | 4.0 | 6.0 | 0.00 | 0.00 | 0.00 | 31 | 1021.7 |
| 20260903095926 | 87 | 251 | 2.0 | 5.0 | 0.00 | 0.00 | 0.00 | 31 | 1021.8 |
| 20260903095427 | 87 | 214 | 3.0 | 5.0 | 0.00 | 0.00 | 0.00 | 31 | 1021.8 |
| 20260903094926 | 87 | 183 | 2.0 | 4.0 | 0.00 | 0.00 | 0.00 | 31 | 1021.9 |
| 20260903094427 | 87 | 172 | 2.0 | 4.0 | 0.00 | 0.00 | 0.00 | 31 | 1021.9 |
| 20260903093926 | 85 | 158 | 1.0 | 4.0 | 0.00 | 0.00 | 0.00 | 32 | 1022.0 |
| 20260903093426 | 85 | 162 | 1.0 | 5.0 | 0.00 | 0.00 | 0.00 | 32 | 1022.0 |
| 20260903092926 | 85 | 149 | 2.0 | 5.0 | 0.00 | 0.00 | 0.00 | 32 | 1022.0 |
| 20260903092426 | 85 | 203 | 2.0 | 4.0 | 0.00 | 0.00 | 0.00 | 31 | 1022.2 |
| 20260903091925 | 85 | 240 | 1.0 | 4.0 | 0.00 | 0.00 | 0.00 | 31 | 1022.1 |
| 20260903091426 | 84 | 118 | 1.0 | 4.0 | 0.00 | 0.00 | 0.00 | 30 | 1022.1 |
| 20260903090925 | 85 | 113 | 1.0 | 4.0 | 0.00 | 0.00 | 0.00 | 28 | 1022.1 |
| 20260903090426 | 85 | 109 | 2.0 | 4.0 | 0.00 | 0.00 | 0.00 | 29 | 1022.1 |
| 20260903090147 | 85 | 149 | 3.0 | 5.0 | 0.00 | 0.00 | 0.00 | 28 | 1022.1 |
| 20260903085425 | 84 | 123 | 1.0 | 5.0 | 0.00 | 0.00 | 0.00 | 27 | 1022.1 |
| 20260903084925 | 84 | 121 | 2.0 | 4.0 | 0.00 | 0.00 | 0.00 | 30 | 1022.1 |
| 20260903084425 | 83 | 148 | 1.0 | 4.0 | 0.00 | 0.00 | 0.00 | 29 | 1022.1 |
| 20260903083925 | 83 | 134 | 2.0 | 4.0 | 0.00 | 0.00 | 0.00 | 32 | 1022.2 |
| 20260903083646 | 83 | 127 | 1.0 | 3.0 | 0.00 | 0.00 | 0.00 | 33 | 1022.2 |
| 20260903082924 | 82 | 104 | 1.0 | 3.0 | 0.00 | 0.00 | 0.00 | 34 | 1022.1 |
| 20260903082424 | 81 | 104 | 2.0 | 3.0 | 0.00 | 0.00 | 0.00 | 34 | 1022.0 |
| 20260903081925 | 81 | 188 | 1.0 | 4.0 | 0.00 | 0.00 | 0.00 | 36 | 1022.0 |
| 20260903081424 | 81 | 204 | 2.0 | 4.0 | 0.00 | 0.00 | 0.00 | 36 | 1022.1 |
| 20260903080934 | 81 | 207 | 1.0 | 3.0 | 0.00 | 0.00 | 0.00 | 37 | 1022.1 |
| 20260903080424 | 80 | 202 | 1.0 | 2.0 | 0.00 | 0.00 | 0.00 | 36 | 1022.1 |
| 20260903075925 | 80 | 202 | 0.0 | 3.0 | 0.00 | 0.00 | 0.00 | 36 | 1022.0 |
| 20260903075424 | 80 | 203 | 1.0 | 3.0 | 0.00 | 0.00 | 0.00 | 36 | 1021.9 |
| 20260903074924 | 81 | 200 | 1.0 | 3.0 | 0.00 | 0.00 | 0.00 | 35 | 1021.8 |
| 20260903074423 | 80 | 196 | 2.0 | 3.0 | 0.00 | 0.00 | 0.00 | 36 | 1021.7 |
| 20260903074145 | 80 | 203 | 1.0 | 2.0 | 0.00 | 0.00 | 0.00 | 36 | 1021.7 |
| 20260903073644 | 79 | 203 | 0.0 | 2.0 | 0.00 | 0.00 | 0.00 | 36 | 1021.7 |
| 20260903072923 | 78 | 203 | 1.0 | 2.0 | 0.00 | 0.00 | 0.00 | 37 | 1021.8 |
| 20260903072423 | 78 | 203 | 0.0 | 2.0 | 0.00 | 0.00 | 0.00 | 38 | 1021.8 |
| 20260903071923 | 78 | 203 | 1.0 | 2.0 | 0.00 | 0.00 | 0.00 | 37 | 1021.8 |
| 20260903071646 | 77 | 203 | 0.0 | 1.0 | 0.00 | 0.00 | 0.00 | 38 | 1021.7 |
| 20260903070923 | 77 | 241 | 0.0 | 0.0 | 0.00 | 0.00 | 0.00 | 38 | 1021.6 |
| 20260903070424 | 77 | 244 | 0.0 | 0.0 | 0.00 | 0.00 | 0.00 | 33 | 1021.8 |
| 20260903065922 | 76 | 244 | 0.0 | 0.0 | 0.00 | 0.00 | 0.00 | 34 | 1021.6 |
| 20260903065423 | 75 | 244 | 0.0 | 0.0 | 0.00 | 0.00 | 0.00 | 33 | 1021.6 |
| 20260903064922 | 74 | 245 | 0.0 | 0.0 | 0.00 | 0.00 | 0.00 | 37 | 1021.6 |
| 20260903064644 | 73 | 244 | 0.0 | 0.0 | 0.00 | 0.00 | 0.00 | 38 | 1021.6 |
| 20260903063922 | 73 | 243 | 0.0 | 0.0 | 0.00 | 0.00 | 0.00 | 41 | 1021.5 |
| 20260903063422 | 72 | 243 | 0.0 | 0.0 | 0.00 | 0.00 | 0.00 | 43 | 1021.4 |
| 20260903063150 | 71 | 243 | 0.0 | 1.0 | 0.00 | 0.00 | 0.00 | 49 | 1021.4 |
| 20260903062423 | 71 | 243 | 0.0 | 1.0 | 0.00 | 0.00 | 0.00 | 53 | 1021.4 |
| 20260903061922 | 70 | 0 | 0.0 | 2.0 | 0.00 | 0.00 | 0.00 | 53 | 1021.3 |
| 20260903061422 | 69 | 0 | 0.0 | 2.0 | 0.00 | 0.00 | 0.00 | 54 | 1021.2 |
| 20260903060922 | 68 | 0 | 0.0 | 2.0 | 0.00 | 0.00 | 0.00 | 52 | 1021.3 |
| 20260903060422 | 67 | 0 | 1.0 | 2.0 | 0.00 | 0.00 | 0.00 | 55 | 1021.5 |
| 20260903055922 | 67 | 0 | 0.0 | 1.0 | 0.00 | 0.00 | 0.00 | 57 | 1021.3 |
| 20260903055422 | 67 | 0 | 0.0 | 1.0 | 0.00 | 0.00 | 0.00 | 57 | 1021.2 |
| 20260903054922 | 67 | 0 | 0.0 | 0.0 | 0.00 | 0.00 | 0.00 | 57 | 1021.1 |
| 20260903054644 | 67 | 0 | 0.0 | 0.0 | 0.00 | 0.00 | 0.00 | 57 | 1021.0 |
| 20260903053922 | 66 | 0 | 0.0 | 2.0 | 0.00 | 0.00 | 0.00 | 57 | 1021.0 |
| 20260903053642 | 67 | 0 | 1.0 | 3.0 | 0.00 | 0.00 | 0.00 | 55 | 1021.0 |
| 20260903052921 | 67 | 0 | 2.0 | 3.0 | 0.00 | 0.00 | 0.00 | 52 | 1020.9 |
| 20260903052420 | 68 | 0 | 0.0 | 0.0 | 0.00 | 0.00 | 0.00 | 51 | 1020.9 |
| 20260903051920 | 68 | 0 | 0.0 | 0.0 | 0.00 | 0.00 | 0.00 | 51 | 1020.9 |
| 20260903051421 | 69 | 0 | 0.0 | 0.0 | 0.00 | 0.00 | 0.00 | 51 | 1020.8 |
| 20260903050920 | 69 | 0 | 0.0 | 0.0 | 0.00 | 0.00 | 0.00 | 51 | 1020.7 |
| 20260903050420 | 69 | 0 | 0.0 | 0.0 | 0.00 | 0.00 | 0.00 | 49 | 1020.7 |
| 20260903045920 | 69 | 0 | 0.0 | 0.0 | 0.00 | 0.00 | 0.00 | 50 | 1020.6 |
| 20260903045637 | 69 | 0 | 0.0 | 0.0 | 0.00 | 0.00 | 0.00 | 50 | 1020.6 |
| 20260903044920 | 69 | 0 | 0.0 | 0.0 | 0.00 | 0.00 | 0.00 | 50 | 1020.5 |
| 20260903044420 | 69 | 0 | 0.0 | 0.0 | 0.00 | 0.00 | 0.00 | 49 | 1020.4 |
| 20260903043920 | 70 | 0 | 0.0 | 0.0 | 0.00 | 0.00 | 0.00 | 49 | 1020.3 |
| 20260903043419 | 70 | 0 | 0.0 | 0.0 | 0.00 | 0.00 | 0.00 | 49 | 1020.3 |
| 20260903042920 | 70 | 0 | 0.0 | 0.0 | 0.00 | 0.00 | 0.00 | 49 | 1020.3 |
| 20260903042419 | 70 | 0 | 0.0 | 3.0 | 0.00 | 0.00 | 0.00 | 48 | 1020.3 |
| 20260903041919 | 70 | 0 | 0.0 | 5.0 | 0.00 | 0.00 | 0.00 | 49 | 1020.2 |
| 20260903041419 | 70 | 0 | 1.0 | 5.0 | 0.00 | 0.00 | 0.00 | 49 | 1020.2 |
| 20260903040919 | 70 | 0 | 4.0 | 5.0 | 0.00 | 0.00 | 0.00 | 50 | 1020.3 |
| 20260903040639 | 70 | 0 | 2.0 | 4.0 | 0.00 | 0.00 | 0.00 | 51 | 1020.2 |
| 20260903035919 | 70 | 0 | 3.0 | 4.0 | 0.00 | 0.00 | 0.00 | 51 | 1020.2 |
| 20260903035419 | 70 | 0 | 1.0 | 3.0 | 0.00 | 0.00 | 0.00 | 51 | 1020.3 |
| 20260903034918 | 70 | 0 | 3.0 | 4.0 | 0.00 | 0.00 | 0.00 | 51 | 1020.3 |
| 20260903034419 | 70 | 0 | 2.0 | 4.0 | 0.00 | 0.00 | 0.00 | 52 | 1020.3 |
| 20260903033918 | 70 | 0 | 2.0 | 4.0 | 0.00 | 0.00 | 0.00 | 52 | 1020.3 |
| 20260903033418 | 70 | 0 | 3.0 | 3.0 | 0.00 | 0.00 | 0.00 | 53 | 1020.3 |
| 20260903032918 | 70 | 0 | 1.0 | 2.0 | 0.00 | 0.00 | 0.00 | 53 | 1020.4 |
| 20260903032418 | 70 | 0 | 0.0 | 3.0 | 0.00 | 0.00 | 0.00 | 53 | 1020.5 |
| 20260903031918 | 70 | 0 | 0.0 | 3.0 | 0.00 | 0.00 | 0.00 | 53 | 1020.5 |
| 20260903031634 | 70 | 0 | 2.0 | 3.0 | 0.00 | 0.00 | 0.00 | 54 | 1020.4 |
| 20260903031137 | 70 | 0 | 1.0 | 2.0 | 0.00 | 0.00 | 0.00 | 54 | 1020.4 |
| 20260903030418 | 70 | 0 | 1.0 | 2.0 | 0.00 | 0.00 | 0.00 | 54 | 1020.4 |
| 20260903025917 | 70 | 0 | 1.0 | 2.0 | 0.00 | 0.00 | 0.00 | 54 | 1020.4 |
| 20260903025417 | 70 | 0 | 1.0 | 2.0 | 0.00 | 0.00 | 0.00 | 54 | 1020.4 |
| 20260903024918 | 70 | 0 | 1.0 | 2.0 | 0.00 | 0.00 | 0.00 | 54 | 1020.3 |
| 20260903024417 | 70 | 0 | 0.0 | 2.0 | 0.00 | 0.00 | 0.00 | 55 | 1020.3 |
| 20260903024136 | 70 | 0 | 1.0 | 2.0 | 0.00 | 0.00 | 0.00 | 55 | 1020.4 |
| 20260903023418 | 70 | 0 | 1.0 | 1.0 | 0.00 | 0.00 | 0.00 | 56 | 1020.4 |
| 20260903022917 | 70 | 0 | 0.0 | 0.0 | 0.00 | 0.00 | 0.00 | 55 | 1020.4 |
| 20260903022416 | 70 | 0 | 0.0 | 0.0 | 0.00 | 0.00 | 0.00 | 55 | 1020.4 |
| 20260903021916 | 70 | 0 | 0.0 | 0.0 | 0.00 | 0.00 | 0.00 | 55 | 1020.3 |
| 20260903021416 | 70 | 0 | 0.0 | 0.0 | 0.00 | 0.00 | 0.00 | 55 | 1020.4 |
| 20260903020916 | 70 | 0 | 0.0 | 1.0 | 0.00 | 0.00 | 0.00 | 56 | 1020.3 |
| 20260903020414 | 70 | 0 | 0.0 | 1.0 | 0.00 | 0.00 | 0.00 | 56 | 1020.4 |
| 20260903020135 | 70 | 0 | 0.0 | 0.0 | 0.00 | 0.00 | 0.00 | 55 | 1020.3 |
| 20260903015641 | 70 | 0 | 0.0 | 0.0 | 0.00 | 0.00 | 0.00 | 55 | 1020.4 |
| 20260903015411 | 70 | 0 | 0.0 | 0.0 | 0.00 | 0.00 | 0.00 | 54 | 1020.3 |
| 20260903014632 | 71 | 0 | 0.0 | 0.0 | 0.00 | 0.00 | 0.00 | 54 | 1020.3 |
| 20260903013910 | 71 | 0 | 0.0 | 0.0 | 0.00 | 0.00 | 0.00 | 55 | 1020.3 |
| 20260903013406 | 71 | 0 | 0.0 | 4.0 | 0.00 | 0.00 | 0.00 | 54 | 1020.3 |
| 20260903012904 | 71 | 0 | 0.0 | 4.0 | 0.00 | 0.00 | 0.00 | 54 | 1020.2 |
| 20260903012405 | 72 | 0 | 1.0 | 4.0 | 0.00 | 0.00 | 0.00 | 51 | 1020.2 |
| 20260903011905 | 73 | 0 | 4.0 | 4.0 | 0.00 | 0.00 | 0.00 | 51 | 1020.2 |
| 20260903011407 | 73 | 0 | 0.0 | 0.0 | 0.00 | 0.00 | 0.00 | 51 | 1020.2 |
| 20260903010904 | 73 | 0 | 0.0 | 0.0 | 0.00 | 0.00 | 0.00 | 51 | 1020.1 |
| 20260903010406 | 73 | 0 | 0.0 | 0.0 | 0.00 | 0.00 | 0.00 | 51 | 1020.2 |
| 20260903005904 | 74 | 0 | 0.0 | 0.0 | 0.00 | 0.00 | 0.00 | 50 | 1020.2 |
| 20260903005406 | 74 | 0 | 0.0 | 0.0 | 0.00 | 0.00 | 0.00 | 50 | 1020.2 |
| 20260903004905 | 74 | 0 | 0.0 | 0.0 | 0.00 | 0.00 | 0.00 | 50 | 1020.2 |
| 20260903004406 | 73 | 0 | 0.0 | 0.0 | 0.00 | 0.00 | 0.00 | 50 | 1020.1 |
| 20260903003904 | 73 | 0 | 0.0 | 0.0 | 0.00 | 0.00 | 0.00 | 50 | 1020.0 |
| 20260903003406 | 73 | 0 | 0.0 | 0.0 | 0.00 | 0.00 | 0.00 | 50 | 1020.1 |
| 20260903002904 | 73 | 0 | 0.0 | 0.0 | 0.00 | 0.00 | 0.00 | 50 | 1020.1 |
| 20260903002406 | 73 | 0 | 0.0 | 0.0 | 0.00 | 0.00 | 0.00 | 50 | 1020.1 |
| 20260903001905 | 73 | 0 | 0.0 | 0.0 | 0.00 | 0.00 | 0.00 | 50 | 1020.1 |
| 20260903001407 | 73 | 0 | 0.0 | 0.0 | 0.00 | 0.00 | 0.00 | 51 | 1020.1 |
| 20260903000904 | 74 | 0 | 0.0 | 1.0 | 0.00 | 0.00 | 0.00 | 51 | 1020.1 |
| 20260903000406 | 74 | 0 | 0.0 | 2.0 | 0.00 | 0.00 | 0.00 | 50 | 1020.1 |
| 20260902235904 | 74 | 0 | 1.0 | 3.0 | 0.00 | 0.00 | 0.00 | 49 | 1020.2 |
| 20260902235406 | 75 | 0 | 1.0 | 3.0 | 0.00 | 0.00 | 0.00 | 49 | 1020.1 |
| 20260902234905 | 75 | 0 | 0.0 | 0.0 | 0.00 | 0.00 | 0.00 | 49 | 1020.2 |
| 20260902234405 | 75 | 0 | 0.0 | 2.0 | 0.00 | 0.00 | 0.00 | 49 | 1020.2 |
| 20260902234347 | 75 | 0 | 0.0 | 2.0 | 0.00 | 0.00 | 0.00 | 49 | 1020.2 |
| 20260902233406 | 75 | 0 | 0.0 | 0.0 | 0.00 | 0.00 | 0.00 | 49 | 1020.1 |
| 20260902232904 | 75 | 0 | 0.0 | 1.0 | 0.00 | 0.00 | 0.00 | 48 | 1020.1 |
| 20260902232406 | 75 | 0 | 0.0 | 1.0 | 0.00 | 0.00 | 0.00 | 48 | 1020.1 |
| 20260902231906 | 75 | 0 | 0.0 | 1.0 | 0.00 | 0.00 | 0.00 | 48 | 1020.1 |
| 20260902231407 | 76 | 0 | 0.0 | 0.0 | 0.00 | 0.00 | 0.00 | 48 | 1020.0 |
| 20260902230904 | 76 | 0 | 0.0 | 1.0 | 0.00 | 0.00 | 0.00 | 48 | 1020.0 |
| 20260902230405 | 76 | 0 | 0.0 | 2.0 | 0.00 | 0.00 | 0.00 | 48 | 1020.0 |
| 20260902230121 | 76 | 0 | 0.0 | 2.0 | 0.00 | 0.00 | 0.00 | 47 | 1020.0 |
| 20260902225406 | 76 | 0 | 1.0 | 3.0 | 0.00 | 0.00 | 0.00 | 47 | 1019.9 |
| 20260902224905 | 76 | 0 | 1.0 | 3.0 | 0.00 | 0.00 | 0.00 | 47 | 1019.9 |